Weather observations for the past three days for
Chickasha, Chickasha Municipal Airport
Metric (Imperial)
Date Time (cdt) Wind (kph) Vis. (km) Weather Sky Cond. Temperature (ºC) Relative Humidity Wind Chill (°C) Heat Index (°C) Pressure Precipitation (cm)
Air Dwpt 6 hour altimeter (cm) sea level (mb) 1 hr 3 hr 6 hr
Max. Min.
03 03:35 SE 17 16.09 Fair CLR 27 20 66% 29 76.07 0.0
03 03:15 SE 17 16.09 Fair CLR 27 20 66% 29 76.07 0.0
03 02:55 SE 15 16.09 Fair CLR 27 20 66% 29 76.07 0.0
03 02:35 SE 13 16.09 Fair CLR 27 20 66% 29 76.07 0.0
03 02:15 SE 13 16.09 Fair CLR 28 20 62% 30 76.07 0.0
03 01:55 SE 15 16.09 Fair CLR 28 20 62% 30 76.07 0.0
03 01:35 SE 15 16.09 Fair CLR 28 20 62% 30 76.07 0.0
03 01:15 SE 20 16.09 Fair CLR 29 19 55% 30 76.07 0.0
03 00:55 SE 22 G 30 16.09 Fair CLR 29 19 55% 30 76.05 0.0
03 00:35 SE 22 16.09 Fair CLR 29 18 51% 30 76.05 0.0
03 00:15 SE 20 16.09 Fair CLR 30 18 49% 31 76.05 0.0
02 23:55 SE 17 16.09 Fair CLR 30 18 49% 31 76.05 0.0
02 23:35 SE 15 16.09 Fair CLR 30 18 49% 31 76.05 0.0
02 23:15 SE 15 16.09 Fair CLR 30 17 46% 30 76.05 0.0
02 22:55 SE 15 16.09 Fair CLR 31 17 43% 31 76.05 0.0
02 22:35 SE 17 16.09 Fair CLR 31 17 43% 31 76.05 0.0
02 22:15 SE 19 16.09 Fair CLR 32 17 41% 32 76.05 0.0
02 21:55 SE 15 16.09 Fair CLR 32 17 41% 32 76.05 0.0
02 21:35 SE 17 16.09 Fair CLR 32 17 41% 32 76.02 0.0
02 21:15 SE 17 16.09 Fair CLR 33 17 38% 33 76.02 0.0
02 20:55 SE 17 16.09 Fair CLR 33 17 38% 33 76 0.0
02 20:35 SE 19 16.09 Fair CLR 34 17 36% 35 75.97 0.0
02 20:15 SE 17 16.09 Fair CLR 34 16 34% 34 75.95 0.0
02 19:55 SE 17 16.09 Fair CLR 35 16 32% 35 75.95 0.0
02 19:35 SE 20 16.09 Fair CLR 36 17 32% 37 75.95 0.0
02 19:15 SE 17 16.09 Fair CLR 37 17 31% 38 75.92 0.0
02 18:55 SE 20 16.09 Fair CLR 37 17 31% 38 75.92 0.0
02 18:35 E 19 16.09 Fair CLR 38 17 29% 39 75.92 0.0
02 18:15 SE 22 16.09 Partly Cloudy SCT085 38 17 29% 39 75.92 0.0
02 17:55 SE 22 G 28 16.09 Partly Cloudy SCT085 39 17 27% 40 75.92 0.0
02 17:35 SE 26 16.09 Partly Cloudy SCT085 40 17 26% 41 75.95 0.0
02 17:15 S 22 G 30 16.09 Partly Cloudy SCT085 39 17 27% 40 75.95 0.0
02 16:55 SE 22 G 35 16.09 Partly Cloudy SCT085 38 17 29% 39 75.95 0.0
02 16:35 SE 20 16.09 Fair CLR 40 17 26% 41 75.97 0.0
02 16:15 SE 19 G 35 16.09 Partly Cloudy SCT085 40 17 26% 41 75.97 0.0
02 15:55 S 9 16.09 Partly Cloudy SCT085 41 17 25% 43 76 0.0
02 15:35 S 13 G 30 16.09 Fair CLR 41 16 23% 42 76.02 0.0
02 15:15 SE 17 16.09 Fair CLR 40 16 24% 41 76.05 0.0
02 14:55 SE 20 G 30 16.09 Fair CLR 40 17 26% 41 76.07 0.0
02 14:35 E 13 G 28 16.09 Fair CLR 40 16 24% 41 76.1 0.0
02 14:15 SE 9 16.09 Fair CLR 40 17 26% 41 76.12 0.0
02 13:55 SE 17 16.09 Fair CLR 39 17 27% 40 76.15 0.0
02 13:35 SE 7 16.09 Fair CLR 39 18 29% 41 76.17 0.0
02 13:15 S 19 16.09 Fair CLR 38 18 31% 40 76.2 0.0
02 12:55 S 15 G 31 16.09 Fair CLR 38 18 31% 40 76.23 0.0
02 12:35 S 15 G 28 16.09 Fair CLR 38 18 31% 40 76.25 0.0
02 12:15 SE 11 16.09 Fair CLR 37 19 35% 39 76.25 0.0
02 11:55 S 19 16.09 Fair CLR 36 19 37% 38 76.28 0.0
02 11:35 S 20 G 26 16.09 Fair CLR 36 19 37% 38 76.3 0.0
02 11:15 S 20 16.09 Fair CLR 35 19 39% 37 76.3 0.0
02 10:55 S 15 16.09 Fair CLR 35 19 39% 37 76.3 0.0
02 10:35 S 19 16.09 Fair CLR 34 19 41% 36 76.3 0.0
02 10:15 S 22 16.09 Fair CLR 33 19 44% 35 76.3 0.0
02 09:55 S 19 16.09 Fair CLR 32 19 46% 33 76.3 0.0
02 09:35 S 24 16.09 Fair CLR 31 19 49% 32 76.33 0.0
02 09:15 S 19 16.09 Fair CLR 30 19 52% 31 76.33 0.0
02 08:55 S 19 16.09 Fair CLR 29 20 58% 31 76.33 0.0
02 08:35 S 15 16.09 Fair CLR 28 19 58% 29 76.33 0.0
02 08:15 S 11 16.09 Fair CLR 27 20 66% 29 76.33 0.0
02 07:55 S 7 16.09 Fair CLR 26 19 65% 27 76.3 0.0
02 07:35 S 9 16.09 Fair CLR 25 19 69% 26 76.3 0.0
02 07:15 S 11 16.09 Fair CLR 24 18 69% 25 76.28 0.0
02 06:55 SE 11 16.09 Fair CLR 24 18 69% 25 76.28 0.0
02 06:35 SE 9 16.09 Fair CLR 24 17 65% 25 76.25 0.0
02 06:15 SE 6 16.09 Fair CLR 24 17 65% 25 76.25 0.0
02 05:55 SE 7 16.09 Fair CLR 24 18 69% 25 76.25 0.0
02 05:35 E 7 16.09 Fair CLR 24 18 69% 25 76.25 0.0
02 05:15 SE 7 16.09 Fair CLR 25 17 61% 26 76.25 0.0
02 04:55 SE 9 16.09 Fair CLR 25 18 65% 26 76.23 0.0
02 04:35 SE 11 16.09 Fair CLR 25 17 61% 26 76.23 0.0
02 04:15 SE 9 16.09 Fair CLR 25 17 61% 26 76.23 0.0
02 03:55 SE 9 16.09 Fair CLR 26 17 58% 27 76.23 0.0
02 03:35 SE 11 16.09 Fair CLR 26 17 58% 27 76.2 0.0
02 03:15 SE 9 16.09 Fair CLR 26 17 58% 27 76.2 0.0
02 02:55 SE 7 16.09 Fair CLR 27 17 54% 28 76.23 0.0
02 02:35 SE 9 16.09 Fair CLR 27 17 54% 28 76.2 0.0
02 02:15 SE 9 16.09 Fair CLR 27 17 54% 28 76.2 0.0
02 01:55 SE 9 16.09 Fair CLR 27 17 54% 28 76.2 0.0
02 01:35 Calm 16.09 Fair CLR 26 16 54% 27 76.2 0.0
02 01:15 Calm 16.09 Fair CLR 27 15 48% 27 76.2 0.0
02 00:55 SE 9 16.09 Fair CLR 28 17 51% 29 76.2 0.0
02 00:35 SE 9 16.09 Fair CLR 28 17 51% 29 76.2 0.0
02 00:15 S 9 16.09 Fair CLR 29 17 48% 29 76.2 0.0
01 23:55 SE 13 16.09 Fair CLR 30 17 46% 30 76.2 0.0
01 23:35 SE 13 16.09 Fair CLR 30 17 46% 30 76.2 0.0
01 23:15 SE 11 16.09 Fair CLR 30 16 43% 30 76.2 0.0
01 22:55 SE 15 16.09 Fair CLR 30 16 43% 30 76.2 0.0
01 22:35 SE 13 16.09 Fair CLR 30 16 43% 30 76.17 0.0
01 22:15 SE 15 16.09 Fair CLR 31 16 40% 31 76.17 0.0
01 21:55 SE 11 16.09 Fair CLR 31 16 40% 31 76.15 0.0
01 21:35 SE 11 16.09 Fair CLR 32 16 38% 32 76.12 0.0
01 21:15 SE 13 16.09 Partly Cloudy SCT095 33 16 36% 33 76.1 0.0
01 20:55 S 15 16.09 Partly Cloudy SCT095 33 16 36% 33 76.07 0.0
01 20:35 S 15 16.09 Partly Cloudy SCT095 33 16 36% 33 76.07 0.0
01 20:15 SE 17 16.09 Partly Cloudy SCT100 34 16 34% 34 76.05 0.0
01 19:55 SE 15 16.09 Partly Cloudy SCT110 35 16 32% 35 76.05 0.0
01 19:35 SE 17 16.09 Partly Cloudy SCT110 36 16 30% 36 76.05 0.0
01 19:15 SE 17 16.09 Fair CLR 37 15 27% 37 76.05 0.0
01 18:55 SE 17 16.09 Partly Cloudy SCT100 38 15 25% 38 76.05 0.0
01 18:35 S 13 16.09 Partly Cloudy SCT100 39 14 23% 39 76.05 0.0
01 18:15 S 17 16.09 Fair CLR 39 14 23% 39 76.07 0.0
01 17:55 S 19 16.09 Fair CLR 39 14 23% 39 76.07 0.0
01 17:35 S 15 16.09 Partly Cloudy SCT110 40 13 20% 39 76.07 0.0
01 17:15 SW 15 16.09 Partly Cloudy SCT110 40 13 20% 39 76.07 0.0
01 16:55 S 19 G 26 16.09 Mostly Cloudy BKN100 40 13 20% 39 76.07 0.0
01 16:35 SW 13 16.09 Partly Cloudy SCT100 39 13 21% 38 76.07 0.0
01 16:15 S 20 G 28 16.09 Partly Cloudy SCT110 40 13 20% 39 76.1 0.0
01 15:55 S 17 G 26 16.09 Partly Cloudy SCT100 39 14 23% 39 76.12 0.0
01 15:35 S 26 G 35 16.09 Mostly Cloudy BKN100 39 14 23% 39 76.15 0.0
01 15:15 S 20 16.09 Partly Cloudy SCT100 40 14 21% 40 76.17 0.0
01 14:55 S 20 G 31 16.09 Fair CLR 39 14 23% 39 76.2 0.0
01 14:35 S 19 G 26 16.09 Fair CLR 39 14 23% 39 76.23 0.0
01 14:15 SW 9 16.09 Partly Cloudy SCT090 39 14 23% 39 76.23 0.0
01 13:55 S 24 G 31 16.09 Mostly Cloudy BKN090 39 14 23% 39 76.25 0.0
01 13:35 S 24 16.09 Partly Cloudy SCT090 39 14 23% 39 76.28 0.0
01 13:15 S 17 G 31 16.09 Partly Cloudy SCT090 39 14 23% 39 76.28 0.0
01 12:55 SE 22 G 31 16.09 Partly Cloudy SCT090 39 15 24% 39 76.3 0.0
01 12:35 S 19 G 26 16.09 Fair CLR 38 15 25% 38 76.33 0.0
01 12:15 S 15 16.09 Fair CLR 37 15 27% 37 76.33 0.0
01 11:55 SE 19 G 31 16.09 Fair CLR 38 15 25% 38 76.35 0.0
01 11:35 SW 22 G 28 16.09 Fair CLR 37 16 29% 37 76.35 0.0
01 11:15 SW 19 16.09 Fair CLR 37 15 27% 37 76.35 0.0
01 10:55 SW 20 16.09 Fair CLR 36 16 30% 36 76.35 0.0
01 10:35 SW 13 16.09 Fair CLR 35 17 34% 36 76.38 0.0
01 10:15 S 17 16.09 Fair CLR 34 17 36% 35 76.38 0.0
01 09:55 S 6 16.09 Fair CLR 33 17 38% 33 76.38 0.0
01 09:35 S 7 16.09 Fair CLR 31 17 43% 31 76.38 0.0
01 09:15 Calm 16.09 Fair CLR 29 17 48% 29 76.4 0.0
01 08:55 Calm 16.09 Fair CLR 27 17 54% 28 76.4 0.0
01 08:35 Calm 11.27 Fair CLR 26 17 58% 27 76.38 0.0
01 08:15 Calm 11.27 Fair with Haze CLR 23 17 69% 76.38 0.0
01 07:55 Calm 16.09 Fair CLR 21 15 69% 76.38 0.0
01 07:35 Calm 16.09 Fair CLR 20 14 69% 76.35 0.0
01 07:15 Calm 16.09 Partly Cloudy SCT100 20 15 73% 76.33 0.0
01 06:55 Calm 16.09 Partly Cloudy SCT100 21 14 64% 76.33 0.0
01 06:35 Calm 16.09 Partly Cloudy SCT100 22 15 65% 76.33 0.0
01 06:15 Calm 16.09 Partly Cloudy SCT100 22 14 61% 76.3 0.0
01 05:55 Calm 16.09 Partly Cloudy SCT100 22 14 61% 76.3 0.0
01 05:35 SE 7 16.09 Partly Cloudy SCT100 21 13 60% 76.3 0.0
01 05:15 Calm 16.09 Partly Cloudy SCT100 21 14 64% 76.3 0.0
01 04:55 SE 6 16.09 Fair CLR 21 13 60% 76.3 0.0
01 04:35 E 6 16.09 Fair CLR 21 14 64% 76.28 0.0
01 04:15 Calm 16.09 Fair CLR 21 13 60% 76.28 0.0
01 03:55 E 6 16.09 Fair CLR 22 13 57% 76.28 0.0
01 03:35 Calm 16.09 Fair CLR 22 14 61% 76.25 0.0
01 03:15 Calm 16.09 Fair CLR 22 13 57% 76.28 0.0
01 02:55 NE 7 16.09 Fair CLR 23 12 50% 76.25 0.0
01 02:35 Calm 16.09 Fair CLR 23 13 53% 76.25 0.0
01 02:15 E 6 16.09 Fair CLR 23 14 57% 76.25 0.0
01 02:00 Calm 16.09 Fair CLR 25 14 51% 26 76.28 0.0
01 01:35 SE 7 16.09 Fair CLR 25 13 47% 26 76.25 0.0
01 01:15 SE 7 16.09 Fair CLR 25 14 51% 26 76.25 0.0
01 00:55 SE 7 16.09 Fair CLR 26 13 45% 26 76.25 0.0
01 00:35 SE 6 16.09 Fair CLR 26 13 45% 26 76.25 0.0
01 00:15 SE 9 16.09 Fair CLR 26 13 45% 26 76.25 0.0
31 23:55 SE 9 16.09 Fair CLR 27 14 45% 27 76.23 0.0
31 23:35 SE 7 16.09 Fair CLR 27 13 42% 27 76.23 0.0
31 23:15 SE 9 16.09 Fair CLR 28 13 40% 28 76.23 0.0
31 22:55 SE 11 16.09 Fair CLR 28 14 42% 28 76.23 0.0
31 22:35 SE 9 16.09 Fair CLR 29 13 37% 28 76.23 0.0
31 22:15 SE 15 16.09 Fair CLR 30 14 38% 29 76.2 0.0
31 21:55 SE 11 16.09 Fair CLR 30 14 38% 29 76.17 0.0
31 21:35 SE 13 16.09 Fair CLR 31 13 33% 30 76.17 0.0
31 21:15 SE 11 16.09 Fair CLR 32 13 31% 31 76.15 0.0
31 20:55 SE 15 16.09 Fair CLR 32 13 31% 31 76.12 0.0
31 20:35 SE 15 16.09 Fair CLR 33 12 28% 32 76.1 0.0
31 20:15 SE 17 16.09 Fair CLR 34 11 24% 32 76.07 0.0
31 19:55 S 17 16.09 Fair CLR 35 11 23% 33 76.07 0.0
31 19:35 S 17 16.09 Fair CLR 36 11 22% 34 76.07 0.0
31 19:15 S 20 16.09 Fair CLR 37 11 21% 36 76.07 0.0
31 18:35 S 19 16.09 Fair CLR 38 13 22% 37 76.07 0.0
31 18:15 S 13 16.09 Fair CLR 38 13 22% 37 76.07 0.0
31 17:55 S 13 G 30 16.09 Fair CLR 39 13 21% 38 76.07 0.0
31 17:35 S 17 G 31 16.09 Fair CLR 38 14 24% 38 76.07 0.0
31 17:15 S 22 G 30 16.09 Fair CLR 39 13 21% 38 76.07 0.0
31 16:55 S 20 G 31 16.09 Fair CLR 40 14 21% 40 76.07 0.0
31 16:35 S 15 16.09 Partly Cloudy SCT100 40 14 21% 40 76.1 0.0
31 16:15 S 19 G 26 16.09 Partly Cloudy SCT090 40 14 21% 40 76.1 0.0
31 15:55 SE 22 16.09 Mostly Cloudy BKN090 40 14 21% 40 76.12 0.0
31 15:35 SE 22 16.09 Partly Cloudy SCT090 40 14 21% 40 76.15 0.0
31 15:15 S 17 16.09 Partly Cloudy SCT090 41 14 20% 41 76.17 0.0
31 14:55 SW 15 16.09 Partly Cloudy SCT100 40 15 23% 40 76.17 0.0
31 14:35 SE 22 16.09 Partly Cloudy SCT090 39 15 24% 39 76.2 0.0
31 14:15 S 19 G 30 16.09 Partly Cloudy SCT090 39 15 24% 39 76.2 0.0
31 13:55 S 17 G 33 16.09 Partly Cloudy SCT090 39 15 24% 39 76.23 0.0
31 13:35 SE 20 G 31 16.09 Partly Cloudy SCT090 39 15 24% 39 76.25 0.0
31 13:15 SW 24 16.09 Partly Cloudy SCT080 39 15 24% 39 76.25 0.0
31 12:55 S 17 16.09 Mostly Cloudy BKN080 39 15 24% 39 76.28 0.0
31 12:35 S 15 16.09 Fair CLR 38 17 29% 39 76.28 0.0
31 12:15 S 19 16.09 Fair CLR 38 17 29% 39 76.3 0.0
31 11:55 SW 19 16.09 Fair CLR 37 18 33% 39 76.33 0.0
31 11:35 S 22 G 30 16.09 Fair CLR 37 19 35% 39 76.33 0.0
31 11:15 S 20 16.09 Fair CLR 36 19 37% 38 76.33 0.0
31 10:55 S 22 16.09 Fair CLR 35 19 39% 37 76.33 0.0
31 10:35 SW 22 16.09 Fair CLR 34 19 41% 36 76.33 0.0
31 10:15 S 20 16.09 Fair CLR 34 19 41% 36 76.33 0.0
31 09:55 S 19 16.09 Fair CLR 33 19 44% 35 76.33 0.0
31 09:35 S 17 16.09 Fair CLR 32 19 46% 33 76.35 0.0
31 09:15 SW 11 16.09 Fair CLR 31 19 49% 32 76.35 0.0
31 08:55 SW 9 16.09 Fair CLR 30 18 49% 31 76.35 0.0
31 08:35 S 6 16.09 Fair CLR 29 18 51% 30 76.33 0.0
31 08:15 S 6 16.09 Fair CLR 27 17 54% 28 76.3 0.0
31 07:55 S 7 16.09 Fair CLR 26 17 58% 27 76.28 0.0
31 07:35 S 9 16.09 Fair CLR 26 16 54% 27 76.28 0.0
31 07:15 S 7 16.09 Fair CLR 25 15 54% 26 76.25 0.0
31 06:55 Calm 16.09 Fair CLR 25 15 54% 26 76.23 0.0
31 06:35 Calm 16.09 Fair CLR 26 15 51% 27 76.2 0.0
31 06:15 S 7 16.09 Fair CLR 26 15 51% 27 76.2 0.0
31 05:55 S 7 16.09 Fair CLR 26 15 51% 27 76.2 0.0
31 05:35 S 15 16.09 Fair CLR 26 15 51% 27 76.17 0.0
31 05:15 S 9 16.09 Fair CLR 26 15 51% 27 76.17 0.0
31 04:55 S 7 16.09 Fair CLR 26 14 48% 26 76.17 0.0
31 04:35 S 9 16.09 Fair CLR 27 14 45% 27 76.15 0.0
31 04:15 S 13 16.09 Fair CLR 27 14 45% 27 76.15 0.0
31 03:55 S 13 16.09 Fair CLR 27 14 45% 27 76.15 0.0
Date Time (cdt) Wind (kph) Vis. (km) Weather Sky Cond. Air Dwpt Max. Min. Relative Humidity Wind Chill (°C) Heat Index (°C) altimeter (cm) sea level (mb) 1 hr 3 hr 6 hr
6 hour
Temperature (ºC) Pressure Precipitation (cm)